Terminal Aerodrome Forecast
Issued by NWS

Home | Current Version | Previous Version | Text Only | Print | Product List | Glossary On
Versions: 1 2 3 4 5 6 7 8 9 10 11 12 13 14 15 16 17
000
FTUS44 KMAF 261700
TAFINK
TAF
KINK 261720Z 2618/2718 13008KT P6SM SKC
     FM270200 12009KT P6SM FEW200
     FM271200 13009KT P6SM FEW250
     FM271600 13010G20KT P6SM SCT080 SCT250=

USA.gov is the U.S. government's official web portal to all federal, state and local government web resources and services.